Fort Wayne, IN

8:29 AM EDT on August 30, 2016 (GMT -0400)
Fort Wayne International

Weather History for KFWA - June, 2014

Change the Weather History Date:

Thursday, June 26, 2014

  Actual Average Record
Temperature  
Mean Temperature 75 °F 73 °F  
Max Temperature 85 °F 84 °F 96 °F (1952)
Min Temperature 64 °F 62 °F 42 °F (1902)
Degree Days  
Heating Degree Days 0 0  
Month to date heating degree days 14 29  
Since 1 June heating degree days 14 29  
Since 1 July heating degree days 6965 6101  
Cooling Degree Days 10 8  
Month to date cooling degree days 182 149  
Year to date cooling degree days 263 206  
Since 1 June cooling degree days 182 149  
Growing Degree Days 24 (Base 50)    
Moisture  
Dew Point 64 °F    
Average Humidity 71    
Maximum Humidity 93    
Minimum Humidity 48    
Precipitation  
Precipitation T in 0.12 in 2.99 in (1938)
Month to date precipitation 5.74 3.68  
Year to date precipitation 22.28 18.48  
Snow  
Snow 0.00 in 0.00 in 0.00 in (2002)
Month to date snowfall 0.0 0.0  
Since 1 June snowfall 0.0 0.0  
Since 1 July snowfall 74.7 33.5  
Snow Depth 0.00 in    
Sea Level Pressure  
Sea Level Pressure 30.04 in    
Wind  
Wind Speed 4 mph (NNW)    
Max Wind Speed 10 mph    
Max Gust Speed 13 mph    
Visibility 7 miles    
Events Fog , Rain    
T = Trace of Precipitation, MM = Missing Value Source: NWS Daily Summary

Daily Weather History Graph

Daily Weather History Graph

Search for Another Location

Airport or City:

Trip Planner

Search our weather history database for the weather conditions in past years. The results will help you decide how hot, cold, wet, or windy it might be!

Date:

Astronomy

Jun. 26, 2014 Rise Set
Actual Time 6:10 AM EDT 9:16 PM EDT
Civil Twilight 5:36 AM EDT 9:50 PM EDT
Nautical Twilight 4:53 AM EDT 10:33 PM EDT
Astronomical Twilight 4:02 AM EDT 11:24 PM EDT
Moon 5:49 AM EDT (6/26) 8:36 PM EDT (6/26)
Length of Visible Light 16h 13m
Length of Day
15h 06m
Waning Crescent, 0% of the Moon is Illuminated
Jun 26
Waning Crescent
Jun 27
New
Jul 5
First Quarter
Jul 12
Full
Jul 18
Last Quarter

Hourly Weather History & Observations

Time (EDT) Temp. Heat Index Dew Point Humidity Pressure Visibility Wind Dir Wind Speed Gust Speed Precip Events Conditions
12:54 AM 69.8 °F - 64.4 °F 83% 30.03 in 10.0 mi NE 5.8 mph - N/A   Partly Cloudy
1:54 AM 68.0 °F - 64.9 °F 90% 30.02 in 10.0 mi Calm Calm - N/A   Mostly Cloudy
2:12 AM 66.9 °F - 64.9 °F 93% 30.04 in 9.0 mi Calm Calm - N/A   Scattered Clouds
2:54 AM 66.0 °F - 64.0 °F 93% 30.02 in 10.0 mi Calm Calm - N/A   Scattered Clouds
3:54 AM 66.0 °F - 64.0 °F 93% 30.02 in 6.0 mi NNW 6.9 mph - N/A   Partly Cloudy
4:38 AM 66.0 °F - 64.9 °F 96% 30.04 in 2.0 mi NW 6.9 mph - N/A   Scattered Clouds
4:43 AM 66.0 °F - 64.9 °F 96% 30.04 in 1.5 mi NW 8.1 mph - N/A   Mostly Cloudy
4:54 AM 66.0 °F - 64.9 °F 96% 30.03 in 0.5 mi NNW 6.9 mph - N/A Fog Fog
5:02 AM 66.0 °F - 64.9 °F 96% 30.04 in 0.2 mi NNW 8.1 mph - N/A Fog Fog
5:25 AM 64.9 °F - 64.0 °F 97% 30.05 in 0.8 mi NNW 9.2 mph - N/A   Mist
5:32 AM 64.9 °F - 64.0 °F 97% 30.05 in 1.2 mi North 9.2 mph - N/A   Overcast
5:54 AM 64.0 °F - 63.0 °F 96% 30.04 in 1.5 mi North 10.4 mph - N/A   Overcast
6:15 AM 64.0 °F - 63.0 °F 96% 30.05 in 2.0 mi NNW 5.8 mph - N/A   Overcast
6:54 AM 64.0 °F - 63.0 °F 96% 30.04 in 2.5 mi North 6.9 mph - N/A   Overcast
7:13 AM 64.0 °F - 63.0 °F 96% 30.07 in 1.8 mi NNW 8.1 mph - N/A   Overcast
7:40 AM 64.9 °F - 63.0 °F 93% 30.07 in 0.5 mi North 8.1 mph - 0.00 in Fog Light Drizzle
7:54 AM 64.9 °F - 64.0 °F 97% 30.06 in 0.8 mi North 8.1 mph - 0.00 in   Light Drizzle
8:09 AM 64.9 °F - 64.0 °F 97% 30.07 in 1.2 mi North 5.8 mph - 0.00 in   Overcast
8:32 AM 66.0 °F - 64.0 °F 93% 30.07 in 3.0 mi North 4.6 mph - 0.00 in   Mostly Cloudy
8:54 AM 66.0 °F - 64.0 °F 93% 30.07 in 5.0 mi North 3.5 mph - 0.00 in   Overcast
9:42 AM 69.1 °F - 64.0 °F 84% 30.09 in 7.0 mi Calm Calm - N/A   Overcast
9:54 AM 70.0 °F - 64.0 °F 81% 30.08 in 8.0 mi Calm Calm - N/A   Overcast
10:42 AM 72.0 °F - 64.9 °F 78% 30.08 in 9.0 mi Calm Calm - N/A   Mostly Cloudy
10:54 AM 72.0 °F - 64.0 °F 76% 30.07 in 9.0 mi Calm Calm - N/A   Overcast
11:54 AM 75.9 °F - 64.0 °F 67% 30.06 in 10.0 mi Calm Calm - N/A   Mostly Cloudy
12:24 PM 75.9 °F - 64.0 °F 67% 30.08 in 10.0 mi East 4.6 mph - N/A   Partly Cloudy
12:54 PM 78.1 °F - 64.9 °F 64% 30.06 in 10.0 mi West 5.8 mph - N/A   Partly Cloudy
1:40 PM 78.1 °F - 64.0 °F 62% 30.07 in 10.0 mi Variable 4.6 mph - N/A   Mostly Cloudy
1:54 PM 79.0 °F - 63.0 °F 58% 30.05 in 10.0 mi Calm Calm - N/A   Scattered Clouds
2:54 PM 82.0 °F 83.4 °F 64.0 °F 54% 30.03 in 10.0 mi NW 4.6 mph - N/A   Mostly Cloudy
3:54 PM 82.9 °F 84.0 °F 63.0 °F 51% 30.02 in 10.0 mi Calm Calm - N/A   Scattered Clouds
4:54 PM 84.0 °F 84.9 °F 63.0 °F 49% 30.02 in 10.0 mi NNW 6.9 mph - N/A   Mostly Cloudy
5:54 PM 82.9 °F 83.7 °F 62.1 °F 49% 30.00 in 10.0 mi Variable 5.8 mph - N/A   Scattered Clouds
6:54 PM 82.9 °F 83.7 °F 62.1 °F 49% 30.00 in 10.0 mi NW 5.8 mph - N/A   Partly Cloudy
7:54 PM 81.0 °F 82.2 °F 63.0 °F 54% 30.00 in 10.0 mi NNW 5.8 mph - N/A   Partly Cloudy
8:54 PM 78.1 °F - 62.1 °F 58% 30.00 in 10.0 mi NNW 3.5 mph - N/A   Partly Cloudy
9:54 PM 73.0 °F - 64.0 °F 73% 30.02 in 10.0 mi Calm Calm - N/A   Partly Cloudy
10:54 PM 71.1 °F - 64.9 °F 81% 30.04 in 10.0 mi Calm Calm - N/A   Scattered Clouds
11:54 PM 68.0 °F - 64.0 °F 87% 30.05 in 10.0 mi ENE 3.5 mph - N/A   Scattered Clouds